Regional Weather Roundup
Issued by NWS

Home | Current Version | Previous Version | Text Only | Print | Product List | Glossary Off
Versions: 1 2 3 4 5 6 7 8 9 10 11 12 13 14 15 16 17 18 19 20 21 22 23 24 25 26 27 28 29 30 31 32 33 34 35 36 37 38 39 40 41 42 43 44 45 46 47 48 49 50

000
ASUS43 KFSD 240102
RWRSD

WEATHER ROUNDUP FOR SOUTH DAKOTA
NATIONAL WEATHER SERVICE SIOUX FALLS SD
800 PM CDT MON APR 23 2018

NOTE: "FAIR" INDICATES FEW OR NO CLOUDS BELOW 12,000 FEET WITH NO
SIGNIFICANT WEATHER AND/OR OBSTRUCTIONS TO VISIBILITY.


SDZ001>005-009-010-012>017-240200-
NORTHWEST AND NORTH CENTRAL SOUTH DAKOTA

CITY           SKY/WX    TMP DP  RH WIND       PRES   REMARKS
BUFFALO          N/A     44  35  70 N16G32    30.14R
FAITH            N/A     61  42  49 E17       30.02R
MOBRIDGE       CLOUDY    65  42  43 E7        30.04S
$$

SDZ012>016-024>037-041>051-057-063-072>074-240200-
SOUTHWEST AND SOUTH CENTRAL SOUTH DAKOTA

CITY           SKY/WX    TMP DP  RH WIND       PRES   REMARKS
RAPID CTY ARPT CLOUDY    50  44  80 N18       30.05F
PIERRE         PTCLDY    65  40  39 SE12      30.03R
CUSTER         PTCLDY    43  37  79 W16       30.08F
PHILIP         MOCLDY    67  41  38 SE9       29.98S
PINE RIDGE     CLOUDY    54  47  77 NW16G30   30.06R
SPEARFISH      MIX PCPN  39  36  87 W25G37    30.17R
WINNER         MOCLDY    63  41  44 SE9       30.05R
$$

SDZ004>011-016>023-039-040-240200-
NORTHEAST SOUTH DAKOTA

CITY           SKY/WX    TMP DP  RH WIND       PRES   REMARKS
ABERDEEN       CLOUDY    63  41  44 E5        30.09R
WATERTOWN      CLOUDY    61  41  47 SE9       30.11R
BROOKINGS      CLOUDY    60  42  51 SE13      30.12S
SISSETON         N/A     62  46  55 E7        30.10R
$$

SDZ017-020-022-023-036>040-048>070-240200-
SOUTHEAST SOUTH DAKOTA

CITY           SKY/WX    TMP DP  RH WIND       PRES   REMARKS
SIOUX FALLS    MOCLDY    61  39  44 E8        30.10S
HURON          CLOUDY    63  40  42 SE6       30.08R
CHAMBERLAIN    CLOUDY    64  43  45 E7        30.06S
MITCHELL       MOCLDY    63  46  54 SE7       30.08S
YANKTON        CLEAR     65  38  36 NE6       30.07F
$$

ABBREVIATIONS USED IN REMARKS
   TC - TEMPERATURE IN CELSIUS
  WCI - WIND CHILL INDEX
   HX - HEAT INDEX
  VSB - VISIBILITY





USA.gov is the U.S. government's official web portal to all federal, state and local government web resources and services.